World > North America > United States > Tennessee

Hourly Kodak, TN Regional Weather

Feedback E-mail the Weather

Quick WX

Kodak, TN Weather Maps

°F °C°F °C
Kodak Weather Map
UTC Time: 7/5/2022, 09:30
Your Time:

Kodak, TN Regional Weather

Expires:202207051000;;715554
ASUS44 KMEG 050910
RWRTN 
TENNESSEE HOURLY STATE WEATHER ROUNDUP
NATIONAL WEATHER SERVICE MEMPHIS TN
400 AM CDT TUE JUL 05 2022


TNZ012-013-036-069-073-074-051000-
CENTRAL EAST TENNESSEE
  
CITY           SKY/WX    TMP DP  RH WIND       PRES   REMARKS
KNOXVILLE      CLEAR     77  70  79 N3        30.07R                  
OAK RIDGE      MOCLDY    77  72  84 CALM      30.09S                  
DOWNTOWN KNOXV FOG       72  72 100 CALM      30.07S VSB 1            
GATLINBURG     PTCLDY    73  72  94 CALM      30.08S                  
MORRISTOWN     PTCLDY    73  72  94 CALM      30.08S                  
JACKSBORO      CLEAR     72  72 100 NW5       30.13S FOG              
$$


SKY/WX - Weather  TMP - Temperature  DP - Dew Point  RH - Humidity
WIND - Wind Direction/Speed PRES - Barometric Pressure VSB - Visibility
WCI - Wind Chill Index E13G22 Wind - East Wind 13 mph/Gusts of 22 mph

Trending Headlines

Kodak Radar Loop



Kodak Quick Facts


National Two Day Weather Forecast


E-mail the Kodak Weather Forecast

Voice your opinion or tell us about page issues...